Manchester, NH

3:54 AM EST on November 18, 2017 (GMT -0500)
Manchester

Weather History for KMHT - July, 2013

Change the Weather History Date:

Wednesday, July 31, 2013

  Actual Average Record
Temperature  
Mean Temperature 72 °F 73 °F  
Max Temperature 82 °F 83 °F 93 °F (2002)
Min Temperature 62 °F 63 °F 49 °F (1968)
Degree Days  
Heating Degree Days 0 0  
Month to date heating degree days 0  
Since 1 June heating degree days 63  
Since 1 July heating degree days 5  
Cooling Degree Days 7 8  
Month to date cooling degree days 239  
Year to date cooling degree days 389  
Since 1 June cooling degree days 359  
Growing Degree Days 22 (Base 50)    
Moisture  
Dew Point 57 °F    
Average Humidity 60    
Maximum Humidity 84    
Minimum Humidity 37    
Precipitation  
Precipitation 0.00 in 0.14 in 2.21 in (1954)
Month to date precipitation 3.80  
Year to date precipitation 25.63  
Snow  
Snow 0.00 in - - ()
Month to date snowfall  
Since 1 July snowfall  
Snow Depth -    
Sea Level Pressure  
Sea Level Pressure 30.10 in    
Wind  
Wind Speed 3 mph (WNW)    
Max Wind Speed 8 mph    
Max Gust Speed -    
Visibility 10 miles    
Events      
T = Trace of Precipitation, MM = Missing Value Source: NWS Daily Summary

Daily Weather History Graph

Daily Weather History Graph

Search for Another Location

Airport or City:

Trip Planner

Search our weather history database for the weather conditions in past years. The results will help you decide how hot, cold, wet, or windy it might be!

Date:

Astronomy

Jul. 31, 2013 Rise Set
Actual Time 5:35 AM EDT 8:07 PM EDT
Civil Twilight 5:03 AM EDT 8:39 PM EDT
Nautical Twilight 4:23 AM EDT 9:19 PM EDT
Astronomical Twilight 3:37 AM EDT 10:05 PM EDT
Moon 12:29 AM EDT (7/31) 3:21 PM EDT (7/31)
Length of Visible Light 15h 36m
Length of Day
14h 31m
Waning Crescent, 32% of the Moon is Illuminated
Jul 31
Waning Crescent
Aug 6
New
Aug 14
First Quarter
Aug 20
Full
Aug 28
Last Quarter

Hourly Weather History & Observations

Time (EDT) Temp. Heat Index Dew Point Humidity Pressure Visibility Wind Dir Wind Speed Gust Speed Precip Events Conditions
12:53 AM 64.9 °F - 59.0 °F 81% 30.10 in 10.0 mi Calm Calm - N/A   Clear
1:53 AM 64.9 °F - 59.0 °F 81% 30.10 in 10.0 mi Calm Calm - N/A   Clear
3:53 AM 64.9 °F - 57.9 °F 78% 30.11 in 10.0 mi North 3.5 mph - N/A   Clear
4:53 AM 63.0 °F - 57.9 °F 84% 30.12 in 10.0 mi NNW 3.5 mph - N/A   Clear
5:53 AM 62.1 °F - 57.0 °F 84% 30.14 in 10.0 mi Calm Calm - N/A   Clear
6:53 AM 64.9 °F - 57.9 °F 78% 30.16 in 10.0 mi Calm Calm - N/A   Clear
7:53 AM 69.1 °F - 57.0 °F 65% 30.16 in 10.0 mi NNW 3.5 mph - N/A   Clear
8:53 AM 72.0 °F - 55.9 °F 57% 30.16 in 10.0 mi NW 4.6 mph - N/A   Clear
9:53 AM 73.9 °F - 55.9 °F 53% 30.15 in 10.0 mi Variable 4.6 mph - N/A   Partly Cloudy
10:53 AM 77.0 °F - 54.0 °F 45% 30.14 in 10.0 mi Calm Calm - N/A   Partly Cloudy
11:53 AM 77.0 °F - 54.0 °F 45% 30.13 in 10.0 mi Calm Calm - N/A   Partly Cloudy
12:53 PM 80.1 °F 80.0 °F 54.0 °F 40% 30.11 in 10.0 mi NNW 6.9 mph - N/A   Partly Cloudy
1:53 PM 80.1 °F 79.9 °F 53.1 °F 39% 30.10 in 10.0 mi NNE 8.1 mph - N/A   Scattered Clouds
2:53 PM 82.0 °F 81.2 °F 53.1 °F 37% 30.09 in 10.0 mi NNW 4.6 mph - N/A   Scattered Clouds
3:53 PM 81.0 °F 80.7 °F 55.0 °F 41% 30.07 in 10.0 mi Calm Calm - N/A   Scattered Clouds
4:53 PM 80.1 °F 80.1 °F 55.0 °F 42% 30.07 in 10.0 mi SSW 6.9 mph - N/A   Partly Cloudy
5:53 PM 80.1 °F 80.6 °F 57.9 °F 47% 30.06 in 10.0 mi SSE 5.8 mph - N/A   Partly Cloudy
6:53 PM 78.1 °F - 57.9 °F 50% 30.06 in 10.0 mi South 8.1 mph - N/A   Clear
7:53 PM 77.0 °F - 59.0 °F 54% 30.06 in 10.0 mi South 6.9 mph - N/A   Clear
8:53 PM 73.0 °F - 61.0 °F 66% 30.06 in 10.0 mi SE 8.1 mph - N/A   Clear
9:53 PM 70.0 °F - 60.1 °F 71% 30.07 in 10.0 mi SSE 4.6 mph - N/A   Clear
10:53 PM 69.1 °F - 60.1 °F 73% 30.06 in 10.0 mi SSE 3.5 mph - N/A   Clear
11:53 PM 68.0 °F - 60.1 °F 76% 30.06 in 10.0 mi Calm Calm - N/A   Clear